[[{"header":{"parameterUnit":"m.s-1","parameterCategory":1,"la1":30.2991,"la2":30.254,"lo1":-89.0895,"lo2":-89.0444,"dy":0.0017,"dx":0.0017,"nx":28,"ny":28,"refTime":"2024-08-19T21:00:00:Z","depth":0,"parameterNumber":2,"parameterNumberName":"U-component_of_WINDS"},"data":[0,0,0,0,0,0,0,0,0,0,0,0,0,0,0,0,0,0,0,0,0,0,0,0,0,0,0,0,0,0,0,0,0,0,0,0,0,0,0,0,0,0,0,0,0,0,0,0,0,0,0,0,0,0,0,0,0,0,1.0048,1.0048,0,1.0086,1.0086,1.0087,1.0073,1.0072,1.0071,1.007,1.0114,1.0116,1.0118,0,0,0,0,0,0,0,0,0,0,0,0,0,0.9969,0.997,1.0048,1.0048,1.0049,1.0086,1.0086,1.0087,1.0073,1.0072,1.0071,1.007,1.0113,1.0116,1.0118,0,0,0,0,0,0,0,0,0,0,0,0,0,1.0005,0.9971,1.0048,1.0046,1.0046,1.0085,1.0086,1.0087,1.0073,1.0072,1.007,1.0069,1.0113,1.0116,1.0119,1.0163,0,0,1.0128,1.0129,0,0,0,0,0,0,0,0,1.0003,1.0008,1.0046,1.0046,1.0047,1.0073,1.0074,1.0113,1.0073,1.0063,1.007,1.0068,1.0102,1.0106,1.0116,1.0165,1.0167,1.0128,1.013,1.0131,1.0132,0,0,0,0,0,0,0,1.0,1.0006,1.0063,1.0046,1.0047,1.0045,1.0049,1.0082,1.009,1.0064,1.0063,1.0067,1.0102,1.0113,1.0117,1.0168,1.0128,1.013,1.0132,1.0133,1.0257,1.0259,0,0,0,0,0,0,0.9997,1.0004,1.0062,1.0064,1.0021,1.0048,1.0052,1.0066,1.0089,1.0091,1.0068,1.0066,1.0108,1.0113,1.0118,1.0173,1.0131,1.0134,1.0136,1.0256,1.0258,1.0259,0,0,0,0,0,0,0.9995,1.0002,1.006,1.0034,1.0041,1.005,1.0066,1.0067,1.0078,1.0092,1.0094,1.0078,1.0108,1.0114,1.0152,1.0174,1.0135,1.0138,1.0254,1.0256,1.0258,1.0282,0,0,0,0,0,0,0.9993,1.0001,1.0017,1.0034,1.0042,1.0092,1.0068,1.0069,1.0083,1.0081,1.0102,1.0104,1.0107,1.0148,1.0155,1.0178,1.014,1.0252,1.0255,1.0258,1.028,1.0285,1.029,0,0,0,0,0,0.999,1.0024,1.0018,1.0025,1.0062,1.0093,1.0098,1.0099,1.0085,1.0102,1.0111,1.0103,1.017,1.0152,1.016,1.0184,1.0251,1.0254,1.0258,1.0277,1.0284,1.029,0,0,0,0,0,0,1.0011,1.0026,1.002,1.0059,1.0075,1.0091,1.0112,1.0106,1.0127,1.0125,1.0127,1.0132,1.0171,1.0181,1.016,1.0229,1.0209,1.0214,1.0221,1.0227,1.0232,1.023,1.0143,0,0,0,0,0,1.002,1.0042,1.0054,1.0088,1.0096,1.0103,1.0116,1.0116,1.0132,1.014,1.0151,1.017,1.0195,1.0211,1.0235,1.0281,1.0286,1.0301,1.0306,1.031,1.0315,1.0341,1.0348,1.027,1.027,1.027,0,0,1.0039,1.005,1.0064,1.0093,1.0104,1.0129,1.0108,1.0135,1.0154,1.0144,1.0181,1.019,1.0211,1.0253,1.0272,1.0262,1.0338,1.0315,1.0318,1.032,1.0345,1.0353,1.0359,1.0273,1.0272,1.0272,0,0,1.0087,1.0097,1.0126,1.0138,1.0156,1.016,1.0167,1.0184,1.0189,1.0225,1.0218,1.0242,1.0285,1.03,1.0313,1.0367,1.0361,1.0374,1.0402,1.0427,1.0433,1.0438,1.0459,1.0466,1.0379,1.0379,1.0379,0,1.0109,1.0144,1.0143,1.017,1.0183,1.0173,1.0204,1.0217,1.0242,1.0253,1.0241,1.0295,1.0308,1.0354,1.0367,1.0377,1.0387,1.0373,1.0432,1.0437,1.0442,1.0462,1.0469,1.0381,1.038,1.038,1.038,0,1.0172,1.0196,1.0218,1.0241,1.0257,1.0286,1.029,1.0307,1.0305,1.0311,1.0348,1.0364,1.0391,1.0401,1.04,1.0448,1.0441,1.0431,1.0411,1.0451,1.047,1.0477,1.0383,1.0382,1.0382,1.0381,0,0,1.0235,1.0255,1.0264,1.0274,1.0293,1.0313,1.0342,1.0367,1.0382,1.0399,1.0425,1.0462,1.0452,1.0467,1.0468,1.049,1.0533,1.0477,1.0477,1.0488,1.0587,1.0596,1.0604,1.0529,1.053,1.0531,1.0586,0,1.0285,1.0334,1.0333,1.038,1.0403,1.0394,1.042,1.0435,1.0442,1.0464,1.0472,1.0498,1.0482,1.0492,1.0513,1.0523,1.0553,1.0519,1.0555,1.0556,1.0551,1.0614,1.0623,1.0674,1.0593,1.0594,1.0595,0,1.035,1.0368,1.0417,1.0432,1.0442,1.0465,1.0488,1.0509,1.0526,1.053,1.0546,1.0544,1.0575,1.0553,1.0598,1.0575,1.059,1.0597,1.0599,1.0604,1.0579,1.0622,1.069,1.0698,1.0606,1.0605,1.0605,0,1.0393,1.043,1.0463,1.0473,1.0491,1.0508,1.0517,1.0533,1.0548,1.0568,1.0579,1.0603,1.0617,1.0637,1.0642,1.0625,1.0687,1.0665,1.0693,1.0693,1.0707,1.0707,1.0781,1.0715,1.0714,1.0714,1.0714,0,1.045,1.048,1.0483,1.0504,1.0538,1.0537,1.0572,1.058,1.0594,1.0618,1.0612,1.0635,1.0639,1.0663,1.0667,1.0705,1.0711,1.0716,1.0717,1.0717,1.0717,1.0728,1.0725,1.0716,1.0716,1.0715,1.0715,0,1.0504,1.0506,1.0543,1.0557,1.0561,1.0586,1.0599,1.062,1.0625,1.0656,1.0663,1.0672,1.07,1.0706,1.0741,1.0743,1.0788,1.0785,1.0782,1.0782,1.0809,1.0807,1.0894,1.0906,1.0831,1.0832,1.0832,0,1.0541,1.0563,1.0579,1.0594,1.0603,1.0627,1.0642,1.0642,1.0658,1.068,1.0699,1.0726,1.0748,1.0794,1.0805,1.0832,1.083,1.0859,1.0834,1.0834,1.0832,1.0831,1.0834,1.0864,1.0865,1.0865,1.0866,0,1.0606,1.0606,1.0627,1.0648,1.0666,1.0683,1.0699,1.0712,1.0715,1.0734,1.0762,1.0779,1.0813,1.0841,1.0867,1.0878,1.0874,1.0873,1.0881,1.0883,1.088,1.0883,1.0796,1.0872,1.0871,1.0871,1.087,1.087,1.0654,1.0674,1.0688,1.0712,1.0724,1.0739,1.076,1.0767,1.0789,1.0816,1.0815,1.0846,1.0864,1.0899,1.0912,1.0937,1.0929,1.094,1.0943,1.0946,1.0949,1.0875,1.0942,1.0942,1.0942,1.0941,1.0941,0,1.072,1.0728,1.075,1.0772,1.0791,1.0782,1.08,1.0817,1.0844,1.086,1.0881,1.0914,1.0941,1.0954,1.0981,1.0999,1.0998,1.1006,1.1006,1.1009,1.0955,1.0946,1.1007,1.1007,1.1007,1.1007,1.1007,1.1007,1.0757,1.0791,1.0792,1.0833,1.0842,1.087,1.0881,1.0896,1.0909,1.0945,1.0967,1.0974,1.099,1.1018,1.1043,1.1046,1.1057,1.1067,1.107,1.1019,1.1012,1.1006,1.0998,1.1069,1.1069,1.1122,1.1122,1.1123]},{"header":{"parameterUnit":"m.s-1","parameterCategory":1,"la1":30.2991,"la2":30.254,"lo1":-89.0895,"lo2":-89.0444,"dy":0.0017,"dx":0.0017,"nx":28,"ny":28,"refTime":"2024-08-19T21:00:00:Z","depth":0,"parameterNumber":3,"parameterNumberName":"V-component_of_WINDS"},"data":[0,0,0,0,0,0,0,0,0,0,0,0,0,0,0,0,0,0,0,0,0,0,0,0,0,0,0,0,0,0,0,0,0,0,0,0,0,0,0,0,0,0,0,0,0,0,0,0,0,0,0,0,0,0,0,0,0,0,-3.4219,-3.422,0,-3.4318,-3.4319,-3.432,-3.4422,-3.4424,-3.4425,-3.4427,-3.4522,-3.4524,-3.4525,0,0,0,0,0,0,0,0,0,0,0,0,0,-3.4115,-3.4116,-3.4219,-3.422,-3.4221,-3.4318,-3.4319,-3.4321,-3.4422,-3.4424,-3.4426,-3.4427,-3.4522,-3.4523,-3.4525,0,0,0,0,0,0,0,0,0,0,0,0,0,-3.4182,-3.4117,-3.4219,-3.4284,-3.4291,-3.4318,-3.4319,-3.4321,-3.4422,-3.4424,-3.4426,-3.4428,-3.4522,-3.4523,-3.4525,-3.4494,0,0,-3.4531,-3.4532,0,0,0,0,0,0,0,0,-3.4178,-3.4185,-3.4273,-3.4279,-3.4287,-3.436,-3.4318,-3.4379,-3.4421,-3.4372,-3.4427,-3.4429,-3.4466,-3.4473,-3.4487,-3.4499,-3.4503,-3.4531,-3.4532,-3.4533,-3.4533,0,0,0,0,0,0,0,-3.4173,-3.4182,-3.4258,-3.4274,-3.4283,-3.4307,-3.4319,-3.433,-3.4406,-3.4376,-3.4384,-3.4395,-3.4471,-3.4485,-3.449,-3.4504,-3.4531,-3.4533,-3.4534,-3.4534,-3.4501,-3.4499,0,0,0,0,0,0,-3.4159,-3.4177,-3.4255,-3.4261,-3.4237,-3.4307,-3.4321,-3.4334,-3.4406,-3.4419,-3.4393,-3.4399,-3.448,-3.4487,-3.4493,-3.4465,-3.4533,-3.4535,-3.4536,-3.4503,-3.4501,-3.4498,0,0,0,0,0,0,-3.4156,-3.4165,-3.4251,-3.4221,-3.4234,-3.4307,-3.4322,-3.4335,-3.435,-3.4419,-3.4432,-3.4393,-3.4482,-3.4491,-3.4495,-3.447,-3.4536,-3.4537,-3.4505,-3.4502,-3.4499,-3.4407,0,0,0,0,0,0,-3.4153,-3.4163,-3.4153,-3.422,-3.4235,-3.4251,-3.432,-3.4336,-3.4353,-3.4362,-3.4423,-3.4435,-3.4485,-3.4492,-3.4497,-3.4474,-3.4539,-3.4508,-3.4504,-3.45,-3.4412,-3.4401,-3.4391,0,0,0,0,0,-3.4149,-3.412,-3.4151,-3.416,-3.4224,-3.4249,-3.4258,-3.4317,-3.4351,-3.4341,-3.4386,-3.4433,-3.4472,-3.4491,-3.4498,-3.4475,-3.451,-3.4505,-3.4501,-3.4417,-3.4403,-3.4391,0,0,0,0,0,0,-3.4044,-3.413,-3.4166,-3.4158,-3.4196,-3.4266,-3.4255,-3.43,-3.4327,-3.4335,-3.4406,-3.4419,-3.4415,-3.4445,-3.4465,-3.4451,-3.4498,-3.4494,-3.4432,-3.4419,-3.4409,-3.4402,-3.454,0,0,0,0,0,-3.4021,-3.4036,-3.4109,-3.4096,-3.4113,-3.4181,-3.4194,-3.4238,-3.4279,-3.4294,-3.434,-3.4376,-3.4398,-3.441,-3.4433,-3.4417,-3.4433,-3.4405,-3.4394,-3.4385,-3.4382,-3.4379,-3.4369,-3.4484,-3.4484,-3.4484,0,0,-3.3971,-3.402,-3.4025,-3.4076,-3.4111,-3.4125,-3.4193,-3.4204,-3.4215,-3.4295,-3.4304,-3.4338,-3.4384,-3.4379,-3.4379,-3.4404,-3.4354,-3.438,-3.4372,-3.4373,-3.4374,-3.4363,-3.4353,-3.448,-3.4481,-3.4482,0,0,-3.389,-3.3927,-3.3922,-3.3956,-3.4009,-3.4055,-3.4054,-3.4118,-3.4145,-3.4155,-3.4217,-3.4231,-3.4265,-3.4297,-3.4317,-3.4252,-3.4297,-3.4257,-3.4202,-3.4199,-3.419,-3.4182,-3.4161,-3.4153,-3.4253,-3.4253,-3.4253,0,-3.3821,-3.3846,-3.3913,-3.3922,-3.3943,-3.402,-3.4016,-3.4046,-3.4101,-3.4115,-3.4143,-3.419,-3.4226,-3.4232,-3.4217,-3.423,-3.4231,-3.425,-3.4186,-3.4179,-3.4173,-3.4154,-3.4145,-3.4248,-3.4248,-3.4249,-3.4249,0,-3.3761,-3.3777,-3.3766,-3.3823,-3.3843,-3.3845,-3.3913,-3.3925,-3.3967,-3.401,-3.4021,-3.4068,-3.4104,-3.4108,-3.4147,-3.412,-3.4135,-3.4173,-3.4221,-3.4155,-3.4139,-3.4132,-3.4241,-3.4242,-3.4244,-3.4245,0,0,-3.3613,-3.3711,-3.3705,-3.3734,-3.38,-3.3813,-3.3819,-3.3857,-3.3868,-3.3904,-3.3912,-3.3942,-3.398,-3.4003,-3.4047,-3.4044,-3.3993,-3.4084,-3.4086,-3.4067,-3.3969,-3.3941,-3.3931,-3.4024,-3.4023,-3.4022,-3.3966,0,-3.3544,-3.3562,-3.3625,-3.3624,-3.3641,-3.3716,-3.3722,-3.3763,-3.3804,-3.3825,-3.3869,-3.389,-3.3937,-3.3952,-3.3952,-3.3999,-3.3975,-3.4004,-3.4032,-3.4033,-3.402,-3.3922,-3.3892,-3.3837,-3.396,-3.3959,-3.3958,0,-3.3465,-3.3501,-3.3503,-3.3572,-3.3582,-3.3586,-3.3628,-3.3646,-3.3695,-3.3725,-3.3754,-3.3805,-3.3816,-3.3861,-3.3879,-3.3898,-3.3913,-3.3938,-3.3938,-3.3943,-3.3992,-3.3927,-3.3821,-3.3813,-3.3948,-3.3949,-3.3949,0,-3.336,-3.3409,-3.3418,-3.3439,-3.3519,-3.3522,-3.3555,-3.3606,-3.3626,-3.3662,-3.3676,-3.3712,-3.3731,-3.3758,-3.3818,-3.3844,-3.383,-3.3879,-3.3856,-3.3854,-3.385,-3.3849,-3.3746,-3.3857,-3.3857,-3.3857,-3.3857,0,-3.3277,-3.3276,-3.3373,-3.3378,-3.3379,-3.3452,-3.3451,-3.3491,-3.3537,-3.3551,-3.3617,-3.3629,-3.3707,-3.3728,-3.3774,-3.3784,-3.3791,-3.3817,-3.3829,-3.3812,-3.3809,-3.3823,-3.3829,-3.3855,-3.3855,-3.3856,-3.3856,0,-3.316,-3.3225,-3.324,-3.3317,-3.3336,-3.3334,-3.3399,-3.3408,-3.3454,-3.3472,-3.348,-3.3553,-3.3582,-3.3644,-3.3688,-3.372,-3.3719,-3.374,-3.3703,-3.3711,-3.3686,-3.3688,-3.3589,-3.3581,-3.3695,-3.3693,-3.3693,0,-3.3104,-3.3105,-3.3184,-3.32,-3.3232,-3.3255,-3.3278,-3.335,-3.337,-3.3428,-3.343,-3.3465,-3.3496,-3.3539,-3.3595,-3.363,-3.3654,-3.3617,-3.3659,-3.3643,-3.3656,-3.3656,-3.3658,-3.3607,-3.3606,-3.3604,-3.3603,0,-3.2997,-3.3031,-3.3061,-3.3104,-3.313,-3.3166,-3.3206,-3.3215,-3.3296,-3.3316,-3.3348,-3.3372,-3.3421,-3.3455,-3.3499,-3.3533,-3.3582,-3.359,-3.3587,-3.357,-3.3549,-3.3563,-3.3679,-3.3592,-3.3593,-3.3594,-3.3594,-3.3595,-3.2911,-3.2917,-3.2975,-3.3008,-3.3046,-3.3083,-3.3096,-3.3146,-3.3175,-3.3222,-3.3262,-3.3291,-3.3343,-3.3409,-3.344,-3.3463,-3.3487,-3.3482,-3.3481,-3.3479,-3.3473,-3.3545,-3.3471,-3.3472,-3.3472,-3.3472,-3.3473,0,-3.281,-3.2852,-3.2882,-3.2938,-3.2964,-3.3011,-3.3058,-3.3077,-3.3103,-3.3148,-3.3179,-3.3218,-3.3252,-3.3313,-3.3352,-3.336,-3.3384,-3.3368,-3.3369,-3.3376,-3.3448,-3.3448,-3.3348,-3.3348,-3.3348,-3.3349,-3.3349,-3.3349,-3.2761,-3.2776,-3.2816,-3.2851,-3.2893,-3.2924,-3.2948,-3.2983,-3.302,-3.3061,-3.3091,-3.3131,-3.3184,-3.3228,-3.3263,-3.328,-3.3292,-3.3269,-3.3293,-3.3359,-3.3371,-3.3382,-3.3382,-3.3271,-3.3271,-3.3221,-3.322,-3.322]}]]